[[{"header":{"parameterUnit":"m.s-1","parameterCategory":2,"la1":30.2991,"la2":30.254,"lo1":-89.0895,"lo2":-89.0444,"dy":0.0017,"dx":0.0017,"nx":28,"ny":28,"refTime":"2024-04-12T09:00:00:Z","depth":"0","parameterNumber":2,"parameterNumberName":"U-component_of_CURRENTS"},"data":[0,0,0,0,0,0,0,0,0,0,0,0,0,0,0,0,0,0,0,0,0,0,0,0,0,0,0,0,0,0,0,0,0,0,0,0,0,0,0,0,0,0,0,0,0,0,0,0,0,0,0,0,0,0,0,0,0,0,-0.2966,-0.2966,0,-0.2917,-0.2916,-0.2916,-0.2902,-0.2903,-0.2903,-0.2904,-0.2809,-0.2805,-0.2802,0,0,0,0,0,0,0,0,0,0,0,0,0,-0.3022,-0.302,-0.2966,-0.2966,-0.2966,-0.2918,-0.2916,-0.2915,-0.2902,-0.2903,-0.2903,-0.2904,-0.281,-0.2806,-0.2802,0,0,0,0,0,0,0,0,0,0,0,0,0,-0.2984,-0.302,-0.2966,-0.2956,-0.2955,-0.2918,-0.2916,-0.2915,-0.2902,-0.2903,-0.2904,-0.2904,-0.2811,-0.2806,-0.2802,-0.2753,0,0,-0.2787,-0.2785,0,0,0,0,0,0,0,0,-0.2986,-0.2981,-0.2958,-0.2957,-0.2955,-0.292,-0.2901,-0.286,-0.2901,-0.2918,-0.2904,-0.2905,-0.2843,-0.2836,-0.282,-0.2749,-0.2745,-0.2787,-0.2784,-0.2782,-0.2781,0,0,0,0,0,0,0,-0.2989,-0.2983,-0.2943,-0.2957,-0.2956,-0.2945,-0.2941,-0.2893,-0.2872,-0.2916,-0.2916,-0.2917,-0.2842,-0.2824,-0.2817,-0.2743,-0.2787,-0.2783,-0.278,-0.2778,-0.2598,-0.2596,0,0,0,0,0,0,-0.3003,-0.2986,-0.2944,-0.2942,-0.2978,-0.2944,-0.2939,-0.2927,-0.2873,-0.2867,-0.2916,-0.2917,-0.2832,-0.2823,-0.2814,-0.2752,-0.2782,-0.2778,-0.2775,-0.26,-0.2597,-0.2595,0,0,0,0,0,0,-0.3004,-0.2999,-0.2946,-0.2967,-0.296,-0.2943,-0.2929,-0.2926,-0.2907,-0.2874,-0.2867,-0.2902,-0.2832,-0.2821,-0.276,-0.2749,-0.2775,-0.2771,-0.2602,-0.2599,-0.2596,-0.263,0,0,0,0,0,0,-0.3005,-0.2999,-0.2984,-0.2967,-0.2959,-0.2912,-0.2929,-0.2924,-0.2908,-0.2908,-0.2859,-0.2852,-0.2832,-0.2767,-0.2755,-0.2743,-0.2767,-0.2605,-0.2601,-0.2597,-0.2631,-0.2628,-0.2626,0,0,0,0,0,-0.3007,-0.2973,-0.2983,-0.2978,-0.2942,-0.2911,-0.2904,-0.2894,-0.2907,-0.2883,-0.2855,-0.2854,-0.2735,-0.2761,-0.2748,-0.2734,-0.2606,-0.2602,-0.2598,-0.2632,-0.2629,-0.2626,0,0,0,0,0,0,-0.297,-0.2968,-0.2979,-0.2942,-0.2929,-0.291,-0.2884,-0.2889,-0.2849,-0.2849,-0.2826,-0.2814,-0.2758,-0.2729,-0.2758,-0.2667,-0.2671,-0.2664,-0.2702,-0.2698,-0.2695,-0.2705,-0.2764,0,0,0,0,0,-0.2962,-0.2947,-0.2942,-0.2911,-0.2905,-0.2898,-0.2883,-0.2883,-0.2855,-0.2839,-0.2808,-0.2767,-0.2727,-0.2701,-0.2654,-0.26,-0.2576,-0.258,-0.2577,-0.2575,-0.257,-0.2554,-0.2551,-0.2581,-0.2581,-0.2581,0,0,-0.2943,-0.2937,-0.2929,-0.2905,-0.2894,-0.2868,-0.2889,-0.2864,-0.2844,-0.2832,-0.2778,-0.2754,-0.2708,-0.2654,-0.2626,-0.2631,-0.2542,-0.257,-0.2569,-0.2565,-0.2549,-0.2547,-0.2545,-0.2578,-0.2578,-0.2579,0,0,-0.2879,-0.2889,-0.2849,-0.2846,-0.2834,-0.2836,-0.2832,-0.2813,-0.2804,-0.2755,-0.2749,-0.2718,-0.264,-0.2619,-0.2598,-0.2544,-0.253,-0.2527,-0.2525,-0.251,-0.2508,-0.2507,-0.2435,-0.2427,-0.2528,-0.2528,-0.2528,0,-0.2851,-0.2811,-0.2829,-0.2794,-0.2795,-0.2823,-0.279,-0.2779,-0.2743,-0.2742,-0.2734,-0.2659,-0.2624,-0.2586,-0.2568,-0.2543,-0.2515,-0.2552,-0.2511,-0.251,-0.2508,-0.2435,-0.2426,-0.2529,-0.2529,-0.2529,-0.2528,0,-0.2751,-0.2741,-0.2717,-0.2699,-0.2698,-0.2677,-0.269,-0.2683,-0.269,-0.2689,-0.2655,-0.2614,-0.2581,-0.2562,-0.2546,-0.2517,-0.2492,-0.2516,-0.2534,-0.2508,-0.243,-0.2421,-0.253,-0.253,-0.253,-0.2529,0,0,-0.2622,-0.2648,-0.2634,-0.2648,-0.2659,-0.2649,-0.264,-0.2641,-0.2651,-0.2621,-0.2617,-0.2556,-0.2572,-0.2545,-0.2535,-0.2516,-0.2466,-0.2511,-0.251,-0.2463,-0.2391,-0.2252,-0.2228,-0.2501,-0.25,-0.2499,-0.2331,0,-0.2534,-0.2487,-0.2518,-0.2496,-0.2489,-0.2553,-0.2552,-0.2572,-0.2587,-0.2589,-0.2585,-0.2564,-0.2556,-0.2551,-0.2533,-0.2496,-0.2446,-0.2506,-0.2402,-0.2397,-0.2299,-0.2215,-0.2089,-0.1918,-0.2321,-0.2319,-0.2318,0,-0.2399,-0.2407,-0.2374,-0.245,-0.245,-0.2442,-0.2493,-0.2498,-0.2537,-0.2557,-0.2566,-0.2573,-0.2542,-0.2543,-0.2459,-0.2503,-0.2435,-0.2397,-0.239,-0.2246,-0.224,-0.2013,-0.1885,-0.1892,-0.2303,-0.2304,-0.2305,0,-0.2293,-0.2304,-0.2293,-0.2308,-0.2379,-0.2385,-0.2419,-0.2472,-0.2497,-0.2537,-0.2559,-0.2548,-0.2527,-0.248,-0.2388,-0.2434,-0.2274,-0.2334,-0.2128,-0.2116,-0.1975,-0.1952,-0.1862,-0.2246,-0.2246,-0.2247,-0.2247,0,-0.2188,-0.2178,-0.2245,-0.2241,-0.224,-0.232,-0.2331,-0.2378,-0.2448,-0.2467,-0.2531,-0.251,-0.2515,-0.2436,-0.237,-0.2184,-0.2251,-0.2088,-0.206,-0.1974,-0.1954,-0.1927,-0.1981,-0.224,-0.2242,-0.2243,-0.2244,0,-0.2059,-0.211,-0.2101,-0.2168,-0.2187,-0.2178,-0.2269,-0.229,-0.238,-0.2406,-0.2421,-0.246,-0.2348,-0.2297,-0.2183,-0.2121,-0.1934,-0.1897,-0.1759,-0.1717,-0.1558,-0.1618,-0.1486,-0.1446,-0.1662,-0.1658,-0.1654,0,-0.1986,-0.1967,-0.2012,-0.2011,-0.2031,-0.2059,-0.2087,-0.2213,-0.2257,-0.2342,-0.2339,-0.2273,-0.2152,-0.1927,-0.1813,-0.163,-0.1699,-0.1439,-0.1505,-0.1486,-0.1535,-0.1615,-0.1601,-0.1316,-0.1309,-0.1304,-0.13,0,-0.1843,-0.1855,-0.1857,-0.1848,-0.1862,-0.1896,-0.1955,-0.1993,-0.2141,-0.2134,-0.2077,-0.1977,-0.1804,-0.1546,-0.1362,-0.1271,-0.1416,-0.1325,-0.1362,-0.1275,-0.1303,-0.1271,-0.1471,-0.1254,-0.1259,-0.1262,-0.1265,-0.1267,-0.1718,-0.1679,-0.1679,-0.1659,-0.1684,-0.1701,-0.1681,-0.1754,-0.1746,-0.17,-0.1726,-0.145,-0.1347,-0.1047,-0.0987,-0.0892,-0.1027,-0.0881,-0.0953,-0.1036,-0.0999,-0.1055,-0.0788,-0.079,-0.0791,-0.0793,-0.0794,0,-0.1549,-0.1528,-0.1499,-0.1475,-0.1431,-0.1506,-0.1565,-0.1521,-0.1425,-0.1313,-0.1157,-0.0808,-0.0642,-0.0619,-0.0586,-0.0555,-0.0614,-0.0576,-0.07,-0.0705,-0.0772,-0.076,-0.0407,-0.0407,-0.0407,-0.0407,-0.0407,-0.0407,-0.1466,-0.1378,-0.1364,-0.1224,-0.1207,-0.1112,-0.1108,-0.1049,-0.0959,-0.0615,-0.0317,-0.0163,-0.0232,-0.0417,-0.0476,-0.0458,-0.0537,-0.0477,-0.0578,-0.0679,-0.0717,-0.0752,-0.0753,-0.0404,-0.0404,-0.0463,-0.0463,-0.0464]},{"header":{"parameterUnit":"m.s-1","parameterCategory":2,"la1":30.2991,"la2":30.254,"lo1":-89.0895,"lo2":-89.0444,"dy":0.0017,"dx":0.0017,"nx":28,"ny":28,"refTime":"2024-04-12T09:00:00:Z","depth":"0","parameterNumber":3,"parameterNumberName":"V-component_of_CURRENTS"},"data":[0,0,0,0,0,0,0,0,0,0,0,0,0,0,0,0,0,0,0,0,0,0,0,0,0,0,0,0,0,0,0,0,0,0,0,0,0,0,0,0,0,0,0,0,0,0,0,0,0,0,0,0,0,0,0,0,0,0,-0.0724,-0.0723,0,-0.0593,-0.0591,-0.059,-0.053,-0.053,-0.053,-0.053,-0.0373,-0.0369,-0.0364,0,0,0,0,0,0,0,0,0,0,0,0,0,-0.0892,-0.0889,-0.0724,-0.0722,-0.0721,-0.0593,-0.0591,-0.059,-0.053,-0.053,-0.053,-0.053,-0.0374,-0.0369,-0.0364,0,0,0,0,0,0,0,0,0,0,0,0,0,-0.0796,-0.0888,-0.0724,-0.0675,-0.0669,-0.0593,-0.0591,-0.0589,-0.053,-0.053,-0.053,-0.053,-0.0376,-0.037,-0.0363,-0.0323,0,0,-0.0344,-0.0341,0,0,0,0,0,0,0,0,-0.0802,-0.0791,-0.0684,-0.0678,-0.0671,-0.0577,-0.0593,-0.0499,-0.053,-0.0583,-0.053,-0.053,-0.0438,-0.0427,-0.0403,-0.0316,-0.0309,-0.0344,-0.034,-0.0337,-0.0335,0,0,0,0,0,0,0,-0.0809,-0.0796,-0.0673,-0.0682,-0.0674,-0.0648,-0.0635,-0.0575,-0.0512,-0.0579,-0.0574,-0.0558,-0.0435,-0.041,-0.0399,-0.0307,-0.0344,-0.0338,-0.0334,-0.0332,-0.0168,-0.0168,0,0,0,0,0,0,-0.0824,-0.0802,-0.0677,-0.0669,-0.0737,-0.0645,-0.0631,-0.0608,-0.0513,-0.0499,-0.0558,-0.0555,-0.042,-0.0407,-0.0393,-0.0342,-0.0337,-0.0331,-0.0327,-0.0169,-0.0168,-0.0167,0,0,0,0,0,0,-0.0828,-0.0814,-0.0682,-0.0732,-0.0714,-0.0642,-0.0617,-0.0605,-0.0578,-0.0497,-0.0483,-0.0543,-0.042,-0.0402,-0.0341,-0.0336,-0.0328,-0.0323,-0.0169,-0.0168,-0.0168,-0.0239,0,0,0,0,0,0,-0.0834,-0.0816,-0.0804,-0.0733,-0.0711,-0.0643,-0.0617,-0.0603,-0.0568,-0.0563,-0.048,-0.0466,-0.0419,-0.0351,-0.0335,-0.0327,-0.0318,-0.017,-0.0169,-0.0168,-0.0237,-0.024,-0.0243,0,0,0,0,0,-0.084,-0.0822,-0.0804,-0.0788,-0.0697,-0.0643,-0.0629,-0.058,-0.0568,-0.0556,-0.0501,-0.0468,-0.0333,-0.0345,-0.0327,-0.0317,-0.0171,-0.0169,-0.0168,-0.0236,-0.024,-0.0243,0,0,0,0,0,0,-0.0884,-0.0812,-0.0791,-0.075,-0.0704,-0.0632,-0.0613,-0.0583,-0.053,-0.0526,-0.0457,-0.0439,-0.0385,-0.0338,-0.0353,-0.0266,-0.0247,-0.0242,-0.0305,-0.0308,-0.0311,-0.0333,-0.0312,0,0,0,0,0,-0.089,-0.0861,-0.0792,-0.0763,-0.0741,-0.068,-0.0651,-0.062,-0.0564,-0.0541,-0.0485,-0.0422,-0.0364,-0.0328,-0.0272,-0.0219,-0.0169,-0.02,-0.0204,-0.0207,-0.0211,-0.0139,-0.0136,-0.0163,-0.0163,-0.0163,0,0,-0.0901,-0.0856,-0.084,-0.0772,-0.0731,-0.0701,-0.0663,-0.0625,-0.0602,-0.0531,-0.0486,-0.0432,-0.0353,-0.03,-0.0271,-0.026,-0.0169,-0.0205,-0.0208,-0.0211,-0.0137,-0.0135,-0.0132,-0.0162,-0.0163,-0.0163,0,0,-0.0906,-0.0868,-0.0845,-0.0813,-0.0755,-0.0719,-0.0712,-0.0645,-0.0618,-0.0565,-0.0514,-0.0458,-0.0366,-0.0313,-0.0273,-0.0255,-0.0192,-0.0236,-0.0263,-0.0193,-0.0191,-0.0188,-0.0112,-0.0102,-0.0233,-0.0233,-0.0234,0,-0.0922,-0.0884,-0.0833,-0.0806,-0.0789,-0.0732,-0.0717,-0.0676,-0.0601,-0.0581,-0.0561,-0.0433,-0.0372,-0.0303,-0.0299,-0.0263,-0.0212,-0.026,-0.0199,-0.0195,-0.0191,-0.0114,-0.0102,-0.0237,-0.0236,-0.0236,-0.0236,0,-0.0903,-0.0886,-0.0874,-0.0826,-0.08,-0.0782,-0.0727,-0.0701,-0.0666,-0.0621,-0.0555,-0.047,-0.0398,-0.0366,-0.0324,-0.0266,-0.0235,-0.0218,-0.0197,-0.0193,-0.0112,-0.0098,-0.0241,-0.024,-0.0239,-0.0238,0,0,-0.0909,-0.0871,-0.0868,-0.0872,-0.0817,-0.0799,-0.0769,-0.0724,-0.0709,-0.0635,-0.0601,-0.0501,-0.0464,-0.0416,-0.0355,-0.0289,-0.0214,-0.0249,-0.0243,-0.0186,-0.0052,-0.0022,-0.0003,-0.0189,-0.0187,-0.0186,-0.0004,0,-0.0915,-0.0901,-0.0869,-0.0872,-0.0871,-0.0831,-0.0814,-0.077,-0.0721,-0.0674,-0.0585,-0.0528,-0.0479,-0.0449,-0.0377,-0.0253,-0.0182,-0.0264,-0.0052,-0.0046,-0.003,0.0012,0.0061,0.0228,0.001,0.0012,0.0014,0,-0.0901,-0.0905,-0.0912,-0.0924,-0.0918,-0.0909,-0.0888,-0.0863,-0.0787,-0.0748,-0.0676,-0.0604,-0.0496,-0.0462,-0.0253,-0.0308,-0.0193,-0.0095,-0.0085,-0.0026,0.0009,0.019,0.0262,0.0374,0.0036,0.0034,0.0032,0,-0.0942,-0.0937,-0.0957,-0.0957,-0.0948,-0.095,-0.0943,-0.0889,-0.0876,-0.0794,-0.0758,-0.0635,-0.0548,-0.0406,-0.0208,-0.0228,0.003,0.003,0.017,0.0174,0.0275,0.0284,0.0469,0.0172,0.0171,0.0171,0.017,0,-0.0967,-0.0984,-0.0985,-0.1,-0.1036,-0.1007,-0.1023,-0.0993,-0.0945,-0.0899,-0.0805,-0.0715,-0.0529,-0.0359,-0.0208,0.0035,0.0036,0.0179,0.0226,0.0253,0.0258,0.0405,0.0429,0.0178,0.0176,0.0175,0.0174,0,-0.1002,-0.1001,-0.1033,-0.1047,-0.1057,-0.1082,-0.1091,-0.1098,-0.1035,-0.0965,-0.094,-0.0758,-0.0519,-0.0327,-0.0056,0.0058,0.0354,0.0346,0.0364,0.0409,0.0607,0.0624,0.0833,0.0945,0.0523,0.0525,0.0526,0,-0.1014,-0.1034,-0.1074,-0.1107,-0.1116,-0.115,-0.1177,-0.1153,-0.1139,-0.0959,-0.0918,-0.0686,-0.0463,-0.008,0.0146,0.0413,0.0487,0.0586,0.0546,0.064,0.0695,0.0684,0.0763,0.0668,0.0671,0.0673,0.0675,0,-0.1044,-0.1055,-0.1086,-0.1156,-0.12,-0.1247,-0.1264,-0.1263,-0.1179,-0.1031,-0.0781,-0.058,-0.0224,0.0121,0.0403,0.0547,0.0668,0.0636,0.0747,0.0834,0.0826,0.0949,0.0523,0.0694,0.0692,0.069,0.0689,0.0689,-0.1058,-0.1091,-0.1134,-0.1197,-0.1255,-0.1303,-0.1307,-0.122,-0.1103,-0.077,-0.0624,-0.0152,0.0141,0.0566,0.0694,0.092,0.0866,0.0994,0.1015,0.1001,0.1083,0.0686,0.0887,0.0886,0.0885,0.0885,0.0884,0,-0.1065,-0.1105,-0.1172,-0.1244,-0.1301,-0.1327,-0.1331,-0.1231,-0.0977,-0.0556,-0.0181,0.0439,0.0735,0.0956,0.1186,0.1304,0.1329,0.1345,0.136,0.1433,0.1118,0.1095,0.1333,0.1333,0.1333,0.1332,0.1332,0.1332,-0.1073,-0.1124,-0.1164,-0.1255,-0.1302,-0.1317,-0.1297,-0.105,-0.0742,-0.0005,0.0555,0.0953,0.1202,0.1382,0.1584,0.1617,0.1752,0.1689,0.178,0.1556,0.1524,0.1494,0.1481,0.1796,0.1796,0.2114,0.2117,0.2119]}],[{"header":{"parameterUnit":"m.s-1","parameterCategory":2,"la1":30.2991,"la2":30.254,"lo1":-89.0895,"lo2":-89.0444,"dy":0.0017,"dx":0.0017,"nx":28,"ny":28,"refTime":"2024-04-12T09:00:00:Z","depth":"2","parameterNumber":2,"parameterNumberName":"U-component_of_CURRENTS"},"data":[0,0,0,0,0,0,0,0,0,0,0,0,0,0,0,0,0,0,0,0,0,0,0,0,0,0,0,0,0,0,0,0,0,0,0,0,0,0,0,0,0,0,0,0,0,0,0,0,0,0,0,0,0,0,0,0,0,0,-0.2332,-0.2331,0,-0.231,-0.231,-0.2309,-0.2285,-0.2285,-0.2285,-0.2284,-0.225,-0.225,-0.2249,0,0,0,0,0,0,0,0,0,0,0,0,0,-0.2339,-0.2339,-0.2332,-0.2331,-0.2331,-0.231,-0.231,-0.2309,-0.2285,-0.2285,-0.2285,-0.2284,-0.2251,-0.225,-0.2249,0,0,0,0,0,0,0,0,0,0,0,0,0,-0.2327,-0.2339,-0.2332,-0.2318,-0.2316,-0.231,-0.231,-0.2309,-0.2285,-0.2285,-0.2285,-0.2284,-0.2251,-0.225,-0.2249,-0.2249,0,0,-0.2246,-0.2245,0,0,0,0,0,0,0,0,-0.2328,-0.2327,-0.232,-0.2319,-0.2317,-0.2301,-0.23,-0.2289,-0.2285,-0.2296,-0.2284,-0.2284,-0.2267,-0.2265,-0.226,-0.2248,-0.2246,-0.2246,-0.2245,-0.2244,-0.2244,0,0,0,0,0,0,0,-0.2329,-0.2328,-0.2322,-0.232,-0.2318,-0.2309,-0.2306,-0.2298,-0.2282,-0.2295,-0.2293,-0.2293,-0.2266,-0.2261,-0.2259,-0.2246,-0.2246,-0.2245,-0.2244,-0.2244,-0.2258,-0.2259,0,0,0,0,0,0,-0.2336,-0.2329,-0.2322,-0.2321,-0.2324,-0.2309,-0.2306,-0.2306,-0.2283,-0.2279,-0.2294,-0.2292,-0.2263,-0.226,-0.2258,-0.2273,-0.2244,-0.2243,-0.2243,-0.2257,-0.2258,-0.2259,0,0,0,0,0,0,-0.2336,-0.2335,-0.2323,-0.2325,-0.2323,-0.2309,-0.2308,-0.2305,-0.2305,-0.2282,-0.2278,-0.2298,-0.2262,-0.2259,-0.2262,-0.2271,-0.2243,-0.2242,-0.2256,-0.2257,-0.2259,-0.2294,0,0,0,0,0,0,-0.2336,-0.2335,-0.2343,-0.2326,-0.2324,-0.2326,-0.2309,-0.2305,-0.2306,-0.2304,-0.2284,-0.228,-0.2262,-0.2264,-0.2261,-0.2269,-0.2241,-0.2254,-0.2256,-0.2258,-0.2292,-0.2297,-0.2301,0,0,0,0,0,-0.2336,-0.2333,-0.2344,-0.2344,-0.2333,-0.2326,-0.2324,-0.2312,-0.2307,-0.231,-0.2302,-0.2281,-0.2274,-0.2264,-0.226,-0.2268,-0.2253,-0.2256,-0.2258,-0.2289,-0.2296,-0.2301,0,0,0,0,0,0,-0.2337,-0.233,-0.2341,-0.2337,-0.2342,-0.2323,-0.2319,-0.2319,-0.2315,-0.2312,-0.2293,-0.2289,-0.2294,-0.2282,-0.2272,-0.228,-0.2261,-0.2262,-0.2286,-0.2292,-0.2296,-0.2277,-0.224,0,0,0,0,0,-0.2345,-0.2338,-0.2344,-0.2341,-0.2344,-0.2339,-0.2337,-0.2334,-0.2325,-0.2322,-0.2311,-0.2303,-0.2301,-0.2297,-0.229,-0.2294,-0.2258,-0.2299,-0.2304,-0.2308,-0.2292,-0.2266,-0.2266,-0.2267,-0.2267,-0.2266,0,0,-0.2343,-0.2339,-0.2336,-0.2341,-0.2339,-0.2346,-0.2336,-0.2333,-0.2339,-0.232,-0.2321,-0.2318,-0.2307,-0.2311,-0.2313,-0.2301,-0.2288,-0.2311,-0.2314,-0.2295,-0.2268,-0.2268,-0.2268,-0.2268,-0.2268,-0.2268,0,0,-0.2327,-0.2336,-0.233,-0.234,-0.2347,-0.2348,-0.2354,-0.2351,-0.235,-0.236,-0.2348,-0.2348,-0.2348,-0.2335,-0.2331,-0.2357,-0.2315,-0.2366,-0.237,-0.2346,-0.2345,-0.2344,-0.2288,-0.2281,-0.2367,-0.2367,-0.2367,0,-0.2326,-0.2324,-0.2329,-0.2334,-0.2341,-0.2353,-0.2359,-0.2365,-0.2364,-0.2365,-0.2366,-0.2363,-0.2353,-0.2352,-0.2361,-0.2364,-0.2336,-0.2349,-0.235,-0.2348,-0.2346,-0.2289,-0.2281,-0.2369,-0.2368,-0.2368,-0.2368,0,-0.2312,-0.2321,-0.2316,-0.2332,-0.2345,-0.2346,-0.2366,-0.2378,-0.2386,-0.2389,-0.2396,-0.2387,-0.238,-0.2388,-0.238,-0.237,-0.2349,-0.2359,-0.2331,-0.2348,-0.2287,-0.2278,-0.2372,-0.2371,-0.237,-0.237,0,0,-0.2261,-0.23,-0.2296,-0.2312,-0.2343,-0.2345,-0.237,-0.2387,-0.2393,-0.2406,-0.2403,-0.2408,-0.2403,-0.2397,-0.2392,-0.2372,-0.2333,-0.2361,-0.2359,-0.2295,-0.2256,-0.214,-0.2119,-0.235,-0.2349,-0.2348,-0.2215,0,-0.2245,-0.2254,-0.2282,-0.2298,-0.2306,-0.2344,-0.2365,-0.2387,-0.2402,-0.2405,-0.2405,-0.2403,-0.2409,-0.2405,-0.2389,-0.2351,-0.2313,-0.2366,-0.2257,-0.2253,-0.214,-0.2107,-0.1958,-0.1818,-0.2206,-0.2204,-0.2203,0,-0.2207,-0.2224,-0.2236,-0.2282,-0.229,-0.2306,-0.2336,-0.236,-0.2383,-0.2397,-0.2405,-0.2404,-0.2382,-0.2385,-0.2314,-0.2351,-0.2298,-0.2264,-0.2259,-0.2126,-0.212,-0.1867,-0.1787,-0.2188,-0.2189,-0.219,-0.2191,0,-0.2139,-0.2181,-0.2188,-0.2203,-0.2264,-0.2276,-0.2306,-0.2343,-0.2358,-0.2381,-0.2384,-0.238,-0.2352,-0.2316,-0.2248,-0.2283,-0.2148,-0.2189,-0.2027,-0.2018,-0.1853,-0.183,-0.2117,-0.2117,-0.2117,-0.2117,-0.2118,0,-0.2089,-0.209,-0.2156,-0.2158,-0.2166,-0.2231,-0.2239,-0.2276,-0.2317,-0.2313,-0.2364,-0.233,-0.2333,-0.2266,-0.2224,-0.2074,-0.2124,-0.1995,-0.1969,-0.186,-0.1841,-0.2141,-0.2145,-0.2112,-0.2114,-0.2115,-0.2115,0,-0.199,-0.2042,-0.2047,-0.2111,-0.2127,-0.2125,-0.219,-0.22,-0.226,-0.2252,-0.2257,-0.227,-0.2174,-0.2145,-0.2051,-0.2005,-0.1903,-0.1835,-0.1687,-0.1645,-0.1797,-0.1805,-0.1646,-0.1641,-0.1636,-0.1632,-0.1629,0,-0.1934,-0.1927,-0.1979,-0.1983,-0.2005,-0.203,-0.2049,-0.2141,-0.2152,-0.2187,-0.216,-0.2098,-0.2002,-0.1828,-0.1726,-0.1598,-0.1721,-0.141,-0.145,-0.1754,-0.1745,-0.1761,-0.1775,-0.1244,-0.1238,-0.1233,-0.1229,0,-0.1817,-0.1836,-0.1845,-0.1851,-0.1868,-0.189,-0.1922,-0.1927,-0.2018,-0.2013,-0.195,-0.1879,-0.1714,-0.1495,-0.1353,-0.1278,-0.143,-0.1302,-0.1637,-0.1393,-0.1366,-0.1362,-0.139,-0.1185,-0.1189,-0.1193,-0.1195,-0.1197,-0.1711,-0.1687,-0.1701,-0.1694,-0.1719,-0.1716,-0.1671,-0.1724,-0.1707,-0.1672,-0.1714,-0.1558,-0.1475,-0.1148,-0.1037,-0.0954,-0.1067,-0.1043,-0.1063,-0.1086,-0.107,-0.1037,-0.0789,-0.0791,-0.0793,-0.0795,-0.0796,0,-0.1566,-0.1558,-0.1546,-0.1532,-0.1496,-0.156,-0.1555,-0.1475,-0.1391,-0.1429,-0.137,-0.1124,-0.0956,-0.0879,-0.0658,-0.0605,-0.0649,-0.0595,-0.0668,-0.0709,-0.0746,-0.0719,-0.0341,-0.0341,-0.034,-0.0339,0,0,-0.1492,-0.1429,-0.1425,-0.1308,-0.1295,-0.1188,-0.1145,-0.1048,-0.1019,-0.0919,-0.0866,-0.0962,-0.0868,-0.0645,-0.0558,-0.0418,-0.0582,-0.0387,-0.0743,-0.0872,-0.091,-0.0976,-0.0975,0,0,0,0,0]},{"header":{"parameterUnit":"m.s-1","parameterCategory":2,"la1":30.2991,"la2":30.254,"lo1":-89.0895,"lo2":-89.0444,"dy":0.0017,"dx":0.0017,"nx":28,"ny":28,"refTime":"2024-04-12T09:00:00:Z","depth":"2","parameterNumber":3,"parameterNumberName":"V-component_of_CURRENTS"},"data":[0,0,0,0,0,0,0,0,0,0,0,0,0,0,0,0,0,0,0,0,0,0,0,0,0,0,0,0,0,0,0,0,0,0,0,0,0,0,0,0,0,0,0,0,0,0,0,0,0,0,0,0,0,0,0,0,0,0,-0.0381,-0.038,0,-0.027,-0.0269,-0.0267,-0.0204,-0.0204,-0.0203,-0.0203,-0.0072,-0.0069,-0.0065,0,0,0,0,0,0,0,0,0,0,0,0,0,-0.0503,-0.0502,-0.0381,-0.038,-0.0379,-0.027,-0.0268,-0.0267,-0.0204,-0.0204,-0.0203,-0.0203,-0.0073,-0.0069,-0.0065,0,0,0,0,0,0,0,0,0,0,0,0,0,-0.0426,-0.0501,-0.0381,-0.0335,-0.0329,-0.027,-0.0268,-0.0266,-0.0204,-0.0204,-0.0203,-0.0203,-0.0074,-0.0069,-0.0064,-0.0037,0,0,-0.0049,-0.0047,0,0,0,0,0,0,0,0,-0.0431,-0.0422,-0.0343,-0.0338,-0.0332,-0.0251,-0.0263,-0.0189,-0.0204,-0.0251,-0.0203,-0.0203,-0.0131,-0.0121,-0.0099,-0.0031,-0.0026,-0.0048,-0.0045,-0.0043,-0.0042,0,0,0,0,0,0,0,-0.0436,-0.0426,-0.0336,-0.0342,-0.0335,-0.0307,-0.0296,-0.0249,-0.0192,-0.0246,-0.0242,-0.0231,-0.0127,-0.0105,-0.0096,-0.0024,-0.0049,-0.0044,-0.0041,-0.0039,0.0072,0.0072,0,0,0,0,0,0,-0.0454,-0.0431,-0.034,-0.0333,-0.0383,-0.0305,-0.0293,-0.0277,-0.0193,-0.018,-0.0231,-0.0228,-0.0113,-0.0102,-0.0091,-0.0058,-0.0043,-0.0038,-0.0036,0.0072,0.0072,0.0072,0,0,0,0,0,0,-0.0457,-0.0446,-0.0344,-0.0381,-0.0366,-0.0304,-0.0286,-0.0275,-0.0253,-0.0182,-0.0169,-0.0221,-0.0113,-0.0098,-0.0052,-0.0052,-0.0036,-0.0032,0.0072,0.0072,0.0072,0.0011,0,0,0,0,0,0,-0.046,-0.0448,-0.0446,-0.0382,-0.0364,-0.0315,-0.0286,-0.0273,-0.0247,-0.0242,-0.0169,-0.0156,-0.0111,-0.006,-0.0047,-0.0045,-0.0028,0.0073,0.0072,0.0072,0.0013,0.0009,0.0005,0,0,0,0,0,-0.0465,-0.0459,-0.0446,-0.0435,-0.0362,-0.0315,-0.0304,-0.0258,-0.0247,-0.0238,-0.0191,-0.0158,-0.0052,-0.0056,-0.0041,-0.0037,0.0073,0.0072,0.0072,0.0015,0.0009,0.0005,0,0,0,0,0,0,-0.051,-0.045,-0.0435,-0.0411,-0.0372,-0.0305,-0.0292,-0.0265,-0.022,-0.0217,-0.0155,-0.0138,-0.0102,-0.0061,-0.0067,-0.0006,0.0014,0.0017,-0.0035,-0.0039,-0.0043,-0.0054,-0.0023,0,0,0,0,0,-0.0521,-0.0502,-0.0444,-0.0429,-0.041,-0.0356,-0.0333,-0.0303,-0.0254,-0.0234,-0.0185,-0.0134,-0.009,-0.006,-0.0016,0.0023,0.0067,0.0033,0.0029,0.0026,0.0027,0.0096,0.0098,0.0072,0.0072,0.0072,0,0,-0.0536,-0.05,-0.0491,-0.0438,-0.0403,-0.0381,-0.0341,-0.0309,-0.0292,-0.0227,-0.0192,-0.0148,-0.0085,-0.0046,-0.0025,-0.001,0.0054,0.0025,0.0022,0.0025,0.0096,0.0099,0.0101,0.0072,0.0072,0.0072,0,0,-0.0555,-0.0524,-0.0516,-0.0487,-0.044,-0.0403,-0.04,-0.0339,-0.0313,-0.0276,-0.0228,-0.0181,-0.0116,-0.0064,-0.0031,-0.0029,0.0025,-0.0023,-0.0041,0.0025,0.0028,0.0031,0.008,0.0088,-0.0017,-0.0018,-0.0018,0,-0.0578,-0.0556,-0.0508,-0.0494,-0.0476,-0.042,-0.0412,-0.0375,-0.031,-0.0287,-0.0276,-0.0172,-0.0122,-0.006,-0.0063,-0.0037,0.0001,-0.003,0.002,0.0024,0.0029,0.0078,0.0088,-0.0021,-0.002,-0.002,-0.002,0,-0.0587,-0.0575,-0.0568,-0.0533,-0.0508,-0.0492,-0.0439,-0.0414,-0.0382,-0.0339,-0.0282,-0.0211,-0.0146,-0.0126,-0.0093,-0.0039,-0.0023,0.0,0.003,0.0028,0.008,0.0091,-0.0025,-0.0024,-0.0023,-0.0022,0,0,-0.0626,-0.0584,-0.0584,-0.0581,-0.0529,-0.051,-0.0484,-0.0436,-0.0415,-0.0356,-0.0316,-0.0243,-0.0201,-0.0161,-0.0108,-0.005,0.0008,-0.002,-0.0015,0.0024,0.0143,0.0159,0.0173,0.0039,0.004,0.0042,0.0163,0,-0.0651,-0.0647,-0.0611,-0.0612,-0.0607,-0.0554,-0.0534,-0.0485,-0.0435,-0.0382,-0.03,-0.0246,-0.0214,-0.0182,-0.012,-0.002,0.0036,-0.0028,0.0144,0.0149,0.0161,0.0187,0.0168,0.0275,0.0174,0.0176,0.0178,0,-0.0671,-0.0668,-0.0675,-0.0654,-0.0646,-0.0637,-0.0593,-0.0566,-0.0478,-0.0435,-0.0362,-0.0293,-0.0198,-0.0173,-0.0007,-0.0052,0.0035,0.0109,0.0116,0.0163,0.0187,0.0265,0.03,0.0197,0.0196,0.0194,0.0193,0,-0.0725,-0.0711,-0.0723,-0.0716,-0.0681,-0.0676,-0.0656,-0.0587,-0.0559,-0.0466,-0.0421,-0.0308,-0.0231,-0.0118,0.0031,0.0015,0.0216,0.022,0.0316,0.0318,0.0353,0.0354,0.0336,0.0336,0.0336,0.0336,0.0335,0,-0.0761,-0.077,-0.0753,-0.0762,-0.0778,-0.0733,-0.0727,-0.0685,-0.0613,-0.0554,-0.0456,-0.0369,-0.0211,-0.0075,0.0035,0.0215,0.0225,0.0321,0.0358,0.0329,0.0327,0.03,0.0294,0.034,0.0339,0.0338,0.0338,0,-0.0808,-0.0796,-0.0813,-0.0802,-0.0804,-0.0818,-0.079,-0.0776,-0.0696,-0.0612,-0.058,-0.0402,-0.0212,-0.0059,0.0154,0.0236,0.0391,0.045,0.0393,0.0421,0.0442,0.0432,0.0566,0.0568,0.0569,0.057,0.0571,0,-0.0826,-0.084,-0.0858,-0.088,-0.0879,-0.089,-0.0895,-0.0835,-0.0795,-0.0611,-0.056,-0.0361,-0.0176,0.0119,0.0287,0.0481,0.0467,0.0555,0.0524,0.0448,0.047,0.0457,0.0445,0.0545,0.0545,0.0546,0.0546,0,-0.0862,-0.0868,-0.0886,-0.094,-0.0964,-0.098,-0.0963,-0.0934,-0.0816,-0.0701,-0.0484,-0.0318,-0.0022,0.0214,0.0431,0.0529,0.0515,0.0574,0.0545,0.0478,0.0435,0.0454,0.0442,0.0552,0.0551,0.0551,0.0551,0.055,-0.0883,-0.0913,-0.0943,-0.099,-0.1025,-0.1033,-0.1014,-0.0936,-0.0831,-0.0585,-0.044,-0.0167,0.0013,0.0349,0.0502,0.0616,0.0615,0.0628,0.0624,0.0619,0.0584,0.0545,0.0675,0.0675,0.0675,0.0675,0.0676,0,-0.0901,-0.0936,-0.0989,-0.104,-0.1078,-0.1084,-0.103,-0.0951,-0.0778,-0.0527,-0.0287,-0.0064,0.018,0.0354,0.0564,0.0685,0.0657,0.0679,0.0624,0.0618,0.0614,0.0575,0.0666,0.0666,0.0666,0.0667,0,0,-0.0912,-0.0959,-0.0992,-0.1064,-0.1098,-0.1095,-0.1044,-0.0871,-0.0676,-0.0376,-0.0174,0.0021,0.0216,0.0335,0.0486,0.0606,0.058,0.0601,0.06,0.0516,0.051,0.0577,0.0511,0,0,0,0,0]}],[{"header":{"parameterUnit":"m.s-1","parameterCategory":2,"la1":30.2991,"la2":30.254,"lo1":-89.0895,"lo2":-89.0444,"dy":0.0017,"dx":0.0017,"nx":28,"ny":28,"refTime":"2024-04-12T09:00:00:Z","depth":"4","parameterNumber":2,"parameterNumberName":"U-component_of_CURRENTS"},"data":[0,0,0,0,0,0,0,0,0,0,0,0,0,0,0,0,0,0,0,0,0,0,0,0,0,0,0,0,0,0,0,0,0,0,0,0,0,0,0,0,0,0,0,0,0,0,0,0,0,0,0,0,0,0,0,0,0,0,-0.1534,-0.1535,0,-0.1588,-0.1589,-0.1589,-0.1622,-0.1622,-0.1622,-0.1623,-0.1669,-0.1669,-0.167,0,0,0,0,0,0,0,0,0,0,0,0,0,-0.1449,-0.145,-0.1534,-0.1535,-0.1536,-0.1588,-0.1589,-0.1589,-0.1622,-0.1622,-0.1622,-0.1623,-0.1668,-0.1669,-0.1671,0,0,0,0,0,0,0,0,0,0,0,0,0,-0.1491,-0.1451,-0.1534,-0.156,-0.1563,-0.1588,-0.1589,-0.1589,-0.1622,-0.1622,-0.1622,-0.1623,-0.1668,-0.1669,-0.1671,-0.167,0,0,-0.1675,-0.1676,0,0,0,0,0,0,0,0,-0.1489,-0.1494,-0.1555,-0.1558,-0.1561,-0.16,-0.1575,-0.1616,-0.1621,-0.1597,-0.1623,-0.1623,-0.1646,-0.1649,-0.1656,-0.1672,-0.1674,-0.1675,-0.1676,-0.1676,-0.1677,0,0,0,0,0,0,0,-0.1486,-0.1492,-0.1554,-0.1556,-0.156,-0.1565,-0.1571,-0.1583,-0.1617,-0.1599,-0.1602,-0.1611,-0.1647,-0.1654,-0.1657,-0.1675,-0.1675,-0.1676,-0.1677,-0.1678,-0.1775,-0.1777,0,0,0,0,0,0,-0.1483,-0.1489,-0.1552,-0.1556,-0.1527,-0.1566,-0.1573,-0.1586,-0.1617,-0.1623,-0.161,-0.1612,-0.1652,-0.1655,-0.1659,-0.1732,-0.1676,-0.1678,-0.1679,-0.1773,-0.1775,-0.1777,0,0,0,0,0,0,-0.1481,-0.1488,-0.155,-0.1524,-0.1533,-0.1567,-0.1581,-0.1587,-0.1621,-0.1626,-0.1631,-0.1642,-0.1652,-0.1657,-0.1699,-0.1731,-0.1678,-0.168,-0.1771,-0.1774,-0.1776,-0.1831,0,0,0,0,0,0,-0.1478,-0.1487,-0.1509,-0.1525,-0.1535,-0.1584,-0.1581,-0.1587,-0.1624,-0.1628,-0.1654,-0.1657,-0.1653,-0.1698,-0.1701,-0.1732,-0.1681,-0.1769,-0.1772,-0.1775,-0.1827,-0.1836,-0.1843,0,0,0,0,0,-0.1475,-0.1498,-0.151,-0.1519,-0.156,-0.1585,-0.1591,-0.1615,-0.1626,-0.1647,-0.1669,-0.1658,-0.1721,-0.17,-0.1704,-0.1736,-0.1767,-0.1771,-0.1775,-0.1824,-0.1834,-0.1843,0,0,0,0,0,0,-0.1478,-0.1504,-0.1518,-0.155,-0.1576,-0.1592,-0.1619,-0.1632,-0.1666,-0.1678,-0.1679,-0.1684,-0.1733,-0.173,-0.1707,-0.1775,-0.1743,-0.1747,-0.1779,-0.1788,-0.1795,-0.1768,-0.1682,0,0,0,0,0,-0.1488,-0.1513,-0.1536,-0.1567,-0.1583,-0.1606,-0.1626,-0.1642,-0.1666,-0.1683,-0.1703,-0.1726,-0.1747,-0.1765,-0.1781,-0.1818,-0.1778,-0.1843,-0.185,-0.1857,-0.1838,-0.1811,-0.1813,-0.179,-0.179,-0.179,0,0,-0.15,-0.1518,-0.1535,-0.157,-0.1594,-0.1624,-0.162,-0.1659,-0.1688,-0.1682,-0.174,-0.1754,-0.1764,-0.1806,-0.1828,-0.1811,-0.1845,-0.1862,-0.1867,-0.1844,-0.1815,-0.1816,-0.1818,-0.1793,-0.1792,-0.1792,0,0,-0.1525,-0.1553,-0.158,-0.1603,-0.1643,-0.1656,-0.1673,-0.1707,-0.1731,-0.1782,-0.1785,-0.1812,-0.186,-0.1861,-0.1869,-0.1927,-0.1886,-0.1951,-0.1967,-0.1942,-0.1943,-0.1943,-0.1897,-0.1892,-0.1955,-0.1955,-0.1955,0,-0.1543,-0.1575,-0.1594,-0.1625,-0.1649,-0.1674,-0.1707,-0.1734,-0.1781,-0.1795,-0.1812,-0.1865,-0.1877,-0.1902,-0.1928,-0.1941,-0.1915,-0.1931,-0.1949,-0.1948,-0.1947,-0.19,-0.1894,-0.1958,-0.1958,-0.1958,-0.1957,0,-0.1578,-0.1615,-0.1635,-0.168,-0.1709,-0.1743,-0.1775,-0.1812,-0.1846,-0.1863,-0.1909,-0.1925,-0.1945,-0.1968,-0.1969,-0.198,-0.196,-0.1959,-0.1918,-0.1952,-0.1901,-0.1894,-0.1963,-0.1962,-0.1961,-0.196,0,0,-0.1579,-0.1647,-0.1656,-0.1681,-0.1739,-0.1758,-0.1815,-0.1853,-0.1873,-0.1927,-0.1944,-0.1994,-0.1991,-0.1998,-0.2004,-0.199,-0.197,-0.1979,-0.1977,-0.1919,-0.1901,-0.1765,-0.1743,-0.1978,-0.1977,-0.1977,-0.1868,0,-0.1602,-0.1659,-0.1691,-0.1748,-0.1774,-0.1814,-0.1855,-0.1894,-0.1925,-0.1948,-0.1965,-0.1988,-0.2007,-0.2016,-0.201,-0.1979,-0.1954,-0.1998,-0.1888,-0.1883,-0.1746,-0.1731,-0.1974,-0.1863,-0.1861,-0.186,-0.1859,0,-0.1609,-0.1649,-0.1707,-0.1763,-0.178,-0.1821,-0.1869,-0.1908,-0.1942,-0.1965,-0.1987,-0.1992,-0.1992,-0.1998,-0.195,-0.1982,-0.1941,-0.1913,-0.1908,-0.1748,-0.1733,-0.1822,-0.1845,-0.1846,-0.1847,-0.1848,-0.1849,0,-0.1564,-0.1647,-0.1691,-0.1716,-0.1792,-0.1826,-0.1867,-0.1913,-0.193,-0.1964,-0.1966,-0.1978,-0.1965,-0.1939,-0.189,-0.1924,-0.1808,-0.1842,-0.1674,-0.1665,-0.1796,-0.1797,-0.1782,-0.1783,-0.1783,-0.1783,-0.1783,0,-0.1541,-0.1577,-0.1679,-0.1699,-0.1742,-0.1807,-0.1842,-0.1882,-0.192,-0.1904,-0.1964,-0.1926,-0.1949,-0.1891,-0.1865,-0.1724,-0.1783,-0.1647,-0.1618,-0.1825,-0.1831,-0.1791,-0.1793,-0.1779,-0.178,-0.1781,-0.1781,0,-0.1463,-0.1539,-0.1588,-0.1688,-0.1719,-0.1745,-0.1819,-0.1831,-0.1886,-0.186,-0.1867,-0.1875,-0.1789,-0.1778,-0.1702,-0.1653,-0.1561,-0.1496,-0.1687,-0.1676,-0.1446,-0.1453,-0.13,-0.1294,-0.1289,-0.1285,-0.1281,0,-0.1419,-0.1443,-0.1557,-0.1586,-0.1634,-0.169,-0.1719,-0.1799,-0.1793,-0.1792,-0.1751,-0.1698,-0.1677,-0.1455,-0.1478,-0.1388,-0.1379,-0.1334,-0.1418,-0.1404,-0.1392,-0.1408,-0.1421,-0.1273,-0.1272,-0.1271,-0.1269,0,-0.1328,-0.1387,-0.143,-0.149,-0.1539,-0.1572,-0.1612,-0.159,-0.1638,-0.1707,-0.1571,-0.1502,-0.1387,-0.133,-0.1255,-0.1207,-0.1375,-0.1283,-0.1294,-0.1372,-0.137,-0.1367,-0.1386,-0.1252,-0.1255,-0.1256,-0.1257,0,-0.1255,-0.1264,-0.1332,-0.1366,-0.1425,-0.1415,-0.1459,-0.143,-0.1432,-0.1441,-0.1377,-0.1329,-0.134,-0.1228,-0.1161,-0.1097,-0.11,-0.1093,-0.1116,-0.1135,-0.1134,-0.1111,-0.0855,0,0,0,0,0,-0.1167,-0.1168,-0.1199,-0.1227,-0.128,-0.1302,-0.1363,-0.1405,-0.1443,-0.1305,-0.1337,-0.1221,-0.1103,-0.1092,-0.0988,-0.1096,-0.1116,-0.0974,-0.1126,-0.1155,-0.1176,-0.1191,0,0,0,0,0,0,-0.1111,-0.1139,-0.1152,-0.1096,-0.1083,-0.1113,-0.1142,-0.1179,-0.1111,-0.1157,-0.1096,-0.1141,-0.1049,-0.1119,-0.0954,-0.0951,-0.1021,-0.0968,-0.0964,-0.1144,-0.1162,-0.1178,-0.1201,0,0,0,0,0]},{"header":{"parameterUnit":"m.s-1","parameterCategory":2,"la1":30.2991,"la2":30.254,"lo1":-89.0895,"lo2":-89.0444,"dy":0.0017,"dx":0.0017,"nx":28,"ny":28,"refTime":"2024-04-12T09:00:00:Z","depth":"4","parameterNumber":3,"parameterNumberName":"V-component_of_CURRENTS"},"data":[0,0,0,0,0,0,0,0,0,0,0,0,0,0,0,0,0,0,0,0,0,0,0,0,0,0,0,0,0,0,0,0,0,0,0,0,0,0,0,0,0,0,0,0,0,0,0,0,0,0,0,0,0,0,0,0,0,0,-0.0256,-0.0255,0,-0.0185,-0.0184,-0.0183,-0.0144,-0.0144,-0.0144,-0.0144,-0.0042,-0.0039,-0.0036,0,0,0,0,0,0,0,0,0,0,0,0,0,-0.0316,-0.0315,-0.0256,-0.0255,-0.0254,-0.0185,-0.0184,-0.0183,-0.0144,-0.0144,-0.0144,-0.0144,-0.0043,-0.0039,-0.0036,0,0,0,0,0,0,0,0,0,0,0,0,0,-0.0271,-0.0315,-0.0256,-0.0227,-0.0224,-0.0186,-0.0184,-0.0183,-0.0144,-0.0144,-0.0144,-0.0144,-0.0044,-0.004,-0.0036,-0.001,0,0,-0.0023,-0.0021,0,0,0,0,0,0,0,0,-0.0274,-0.0269,-0.0232,-0.0229,-0.0226,-0.0175,-0.0168,-0.0124,-0.0144,-0.0173,-0.0144,-0.0144,-0.0084,-0.0077,-0.0062,-0.0005,-0.0001,-0.0023,-0.002,-0.0018,-0.0017,0,0,0,0,0,0,0,-0.0277,-0.0271,-0.0226,-0.0231,-0.0227,-0.0204,-0.0198,-0.0159,-0.0128,-0.017,-0.0168,-0.0162,-0.0082,-0.0066,-0.0059,0.0001,-0.0023,-0.0019,-0.0017,-0.0015,0.0086,0.0086,0,0,0,0,0,0,-0.029,-0.0274,-0.0229,-0.0224,-0.0252,-0.0204,-0.0197,-0.019,-0.0129,-0.012,-0.0162,-0.016,-0.0073,-0.0064,-0.0055,-0.0023,-0.0019,-0.0015,-0.0012,0.0086,0.0086,0.0086,0,0,0,0,0,0,-0.0292,-0.0287,-0.0231,-0.0249,-0.024,-0.0203,-0.0195,-0.0188,-0.0175,-0.0123,-0.0113,-0.0157,-0.0072,-0.0061,-0.0022,-0.0018,-0.0013,-0.0009,0.0085,0.0086,0.0086,0.0043,0,0,0,0,0,0,-0.0294,-0.0288,-0.0291,-0.025,-0.024,-0.0212,-0.0195,-0.0187,-0.0172,-0.017,-0.0115,-0.0106,-0.0072,-0.0028,-0.0018,-0.0013,-0.0006,0.0085,0.0086,0.0086,0.0044,0.0042,0.004,0,0,0,0,0,-0.0296,-0.0297,-0.0291,-0.0286,-0.0244,-0.0213,-0.0205,-0.0177,-0.0172,-0.0166,-0.013,-0.0107,-0.0018,-0.0025,-0.0013,-0.0006,0.0085,0.0085,0.0086,0.0045,0.0043,0.004,0,0,0,0,0,0,-0.0325,-0.0292,-0.0285,-0.0277,-0.025,-0.0207,-0.02,-0.0183,-0.0149,-0.0148,-0.0101,-0.0089,-0.0056,-0.0024,-0.0032,0.0024,0.0036,0.0039,0.0001,-0.0001,-0.0003,-0.0014,-0.0003,0,0,0,0,0,-0.0334,-0.0328,-0.0292,-0.0288,-0.0276,-0.0241,-0.0227,-0.0208,-0.0173,-0.0158,-0.0122,-0.0081,-0.0043,-0.0018,0.0017,0.0053,0.0081,0.0064,0.0062,0.006,0.006,0.0111,0.0113,0.0088,0.0088,0.0088,0,0,-0.0347,-0.0328,-0.0326,-0.0295,-0.0273,-0.0256,-0.0232,-0.0213,-0.0199,-0.0152,-0.0124,-0.009,-0.0038,-0.0002,0.0016,0.0027,0.008,0.0061,0.0058,0.006,0.0111,0.0114,0.0116,0.0088,0.0088,0.0088,0,0,-0.0363,-0.035,-0.0348,-0.0328,-0.0299,-0.0273,-0.0271,-0.023,-0.0212,-0.0181,-0.0146,-0.0107,-0.0053,-0.0009,0.0019,0.0029,0.0061,0.0034,0.0024,0.0073,0.0076,0.0078,0.0104,0.0109,0.004,0.004,0.004,0,-0.0382,-0.0372,-0.0343,-0.0333,-0.0322,-0.0285,-0.0278,-0.025,-0.0204,-0.0186,-0.0181,-0.0095,-0.0054,0.0002,0.0003,0.0025,0.0046,0.0028,0.007,0.0073,0.0076,0.0102,0.0109,0.0038,0.0038,0.0038,0.0039,0,-0.0389,-0.0385,-0.0382,-0.0358,-0.0341,-0.033,-0.0291,-0.0271,-0.025,-0.0218,-0.0171,-0.0114,-0.0061,-0.0043,-0.0016,0.003,0.0034,0.0054,0.0073,0.0076,0.0103,0.011,0.0035,0.0036,0.0036,0.0037,0,0,-0.0424,-0.0394,-0.0397,-0.0393,-0.0356,-0.0342,-0.0319,-0.0281,-0.0264,-0.022,-0.0189,-0.0124,-0.0094,-0.0061,-0.0018,0.0026,0.0065,0.0044,0.0048,0.0063,0.0153,0.0135,0.0142,0.0089,0.009,0.0091,0.0156,0,-0.0442,-0.0441,-0.0414,-0.0413,-0.0409,-0.0369,-0.035,-0.0312,-0.0274,-0.0234,-0.017,-0.0127,-0.01,-0.0076,-0.0027,0.0043,0.0084,0.0044,0.0153,0.0156,0.0136,0.015,0.0096,0.0162,0.0164,0.0165,0.0166,0,-0.0457,-0.0457,-0.0464,-0.0444,-0.0437,-0.0432,-0.0397,-0.0372,-0.0302,-0.027,-0.0213,-0.0161,-0.0087,-0.0068,0.0049,0.0019,0.0078,0.013,0.0135,0.014,0.0153,0.0164,0.018,0.0179,0.0178,0.0177,0.0176,0,-0.0501,-0.049,-0.0502,-0.0496,-0.0466,-0.0465,-0.0448,-0.0392,-0.0366,-0.0295,-0.0262,-0.0174,-0.0121,-0.0039,0.0067,0.0058,0.0192,0.02,0.024,0.0239,0.0253,0.025,0.0283,0.0283,0.0283,0.0283,0.0283,0,-0.0525,-0.0536,-0.053,-0.0538,-0.0554,-0.0514,-0.0511,-0.0475,-0.0416,-0.037,-0.029,-0.0229,-0.011,-0.0016,0.0064,0.0172,0.0194,0.0239,0.026,0.0231,0.0225,0.0257,0.0254,0.0285,0.0285,0.0284,0.0284,0,-0.056,-0.0556,-0.0575,-0.0571,-0.0577,-0.0591,-0.0568,-0.0554,-0.0489,-0.0425,-0.0402,-0.0268,-0.014,-0.0024,0.0125,0.0172,0.0274,0.0309,0.0257,0.0274,0.0284,0.0277,0.035,0.035,0.035,0.035,0.035,0,-0.0571,-0.0586,-0.0618,-0.0643,-0.0648,-0.0661,-0.0666,-0.061,-0.0574,-0.0436,-0.0399,-0.0263,-0.0164,0.0027,0.014,0.0282,0.0303,0.0336,0.0317,0.028,0.0294,0.0287,0.028,0.035,0.035,0.035,0.035,0,-0.0594,-0.0615,-0.0635,-0.0696,-0.0723,-0.0735,-0.0724,-0.0694,-0.0593,-0.0541,-0.0381,-0.0256,-0.0107,0.0035,0.0147,0.025,0.03,0.0337,0.0337,0.032,0.0282,0.0294,0.0287,0.035,0.035,0.035,0.035,0,-0.0614,-0.0646,-0.0686,-0.0731,-0.0777,-0.0779,-0.0767,-0.0693,-0.0642,-0.0468,-0.0418,-0.0237,-0.013,0.0021,0.0128,0.022,0.0238,0.0245,0.0251,0.0252,0.02,0.0136,0.0182,0,0,0,0,0,-0.0622,-0.0661,-0.0714,-0.0762,-0.0808,-0.0822,-0.0787,-0.0749,-0.0643,-0.0538,-0.0467,-0.0319,-0.012,-0.0028,0.0061,0.0105,0.0231,0.0209,0.0236,0.0351,0.0351,0.0306,0,0,0,0,0,0,-0.0629,-0.0684,-0.0715,-0.0775,-0.0808,-0.084,-0.0811,-0.0739,-0.0659,-0.0542,-0.0435,-0.0337,-0.0153,-0.0183,0.0047,0.008,0.0101,0.0312,0.0313,0.0352,0.0351,0.0351,0.0304,0,0,0,0,0]}]]